GFSNE_prec_snow_276.txt.gz
Snowfall_Accumulation
0.0 0.0 0.0 0.0 0.0 0.0 0.3 0.8 5.0 5.2 3.1 0.0 0.3 0.0 0.0 0.0 0.0 0.0 0.0 0.0 0.0 0.0 0.0 0.0 0.0 0.0 0.0 0.0 0.0 0.0 0.0 0.0 0.0 0.0 0.0 0.0 0.0 0.0
0.0 0.0 0.0 0.0 0.0 0.1 0.2 0.4 0.8 2.6 2.4 0.0 0.0 0.0 0.0 0.0 0.0 0.0 0.0 0.0 0.0 0.2 0.0 0.0 0.0 0.0 0.0 0.0 0.0 0.0 0.0 0.0 0.0 0.0 0.0 0.0 0.0 0.0
0.0 0.0 0.0 0.0 0.0 0.1 0.2 0.3 0.4 0.8 2.6 1.2 0.0 0.0 0.0 0.0 0.0 0.0 0.0 0.1 0.1 0.7 0.4 0.2 0.0 0.0 0.0 0.0 0.0 0.0 0.0 0.0 0.0 0.0 0.0 0.0 0.0 0.0
0.0 0.1 0.1 0.0 0.0 0.0 0.2 0.2 0.2 0.3 1.3 3.1 3.6 3.9 2.8 0.2 0.0 0.0 0.1 0.3 0.6 0.6 0.4 0.3 0.5 0.0 0.0 0.0 0.0 0.0 0.0 0.0 0.0 0.0 0.0 0.0 0.0 0.0
0.2 0.3 0.2 0.0 0.1 0.0 0.1 0.3 0.3 0.3 0.8 1.0 3.7 3.2 2.4 1.0 0.3 0.0 0.2 0.4 0.6 0.6 0.4 0.7 0.3 0.6 0.3 0.2 0.0 0.3 0.0 0.0 0.0 0.0 0.1 0.0 0.0 0.0
0.2 0.3 0.4 0.5 0.8 0.5 0.2 0.3 0.3 0.2 2.7 3.2 6.5 6.4 4.2 2.6 0.9 0.8 0.3 0.6 2.3 1.5 1.8 0.9 0.9 0.5 0.5 0.1 0.3 0.0 0.0 0.2 0.0 0.0 0.3 0.2 0.0 0.0
0.7 0.5 0.8 0.9 0.7 0.7 0.6 0.5 0.3 0.2 4.9 6.7 7.1 7.0 7.7 4.7 3.7 0.7 1.7 1.1 0.2 0.4 1.0 1.5 1.4 1.1 1.1 0.7 0.3 0.4 0.3 0.0 0.2 0.4 0.0 0.0 0.4 0.0
2.0 1.6 1.3 0.6 0.7 0.3 0.5 0.5 0.5 1.2 6.5 5.1 5.0 4.5 3.2 1.9 1.4 2.9 3.3 4.8 5.8 0.1 1.5 1.9 0.6 1.0 0.7 0.6 0.3 0.3 0.5 0.4 0.7 0.0 0.0 0.0 0.0 0.3
2.8 2.3 2.1 2.9 1.9 0.9 0.9 0.8 0.6 0.5 1.0 2.2 4.9 3.6 3.3 3.6 3.2 5.3 3.1 2.7 4.9 0.3 0.5 2.6 0.3 1.6 1.3 0.7 1.1 0.4 0.5 0.6 0.0 0.6 0.7 0.0 0.7 0.0
3.1 3.0 3.1 3.3 2.5 2.6 3.3 3.3 1.9 1.4 2.1 2.9 2.0 2.3 3.2 2.3 1.4 1.3 1.9 5.7 5.3 0.5 0.8 11.4 8.9 8.8 2.9 1.7 1.2 2.2 0.7 0.1 0.1 0.3 0.2 0.3 1.1 1.3
3.9 3.6 3.1 3.4 3.4 4.6 3.9 4.6 4.5 4.8 3.3 2.7 2.7 2.1 2.8 0.9 0.3 4.5 8.3 7.0 9.0 8.3 7.6 8.9 10.1 9.4 6.9 4.9 2.0 1.9 1.0 0.4 0.4 0.2 0.2 0.1 0.2 0.2
1.5 1.7 3.2 4.0 3.5 2.3 5.4 5.7 7.0 4.5 5.9 6.8 6.0 2.1 1.2 3.0 1.7 3.9 7.1 11.6 11.1 8.4 7.4 11.5 10.2 11.5 13.8 13.9 5.0 2.5 1.4 1.3 0.6 0.4 0.2 0.0 0.3 0.2
0.8 0.8 1.0 2.7 2.0 1.7 2.0 3.2 4.4 4.6 6.2 8.2 8.7 7.8 11.2 5.3 4.9 6.4 7.1 10.7 11.0 15.4 10.9 14.6 10.0 8.8 12.5 10.1 9.6 2.0 1.1 1.1 0.4 0.5 0.2 1.3 0.5 1.2
1.8 2.0 2.5 0.9 1.3 0.6 1.0 3.5 4.6 5.5 7.2 11.3 11.9 12.0 13.9 12.6 12.0 11.2 10.2 9.9 10.4 9.9 9.9 12.7 15.4 9.0 9.6 10.2 9.5 14.2 9.2 1.7 1.1 4.3 1.4 1.1 2.6 3.2
3.1 3.6 2.4 4.6 3.5 5.9 6.7 12.0 10.8 15.3 19.8 19.9 17.2 14.7 10.9 8.0 5.3 5.3 4.8 3.7 5.4 4.4 5.4 8.4 6.7 6.5 8.8 9.5 9.5 11.2 18.4 16.9 7.1 6.3 5.0 7.9 1.1 2.0
10.0 16.7 16.9 22.7 21.0 22.1 21.8 20.3 18.8 17.9 17.3 15.1 12.6 8.6 6.8 5.6 5.8 4.9 8.7 7.0 7.1 6.3 4.8 3.2 4.6 6.3 7.8 5.8 7.2 7.8 7.1 16.0 15.0 9.8 8.6 8.5 9.0 7.9
15.2 22.5 21.2 18.1 15.4 13.2 10.9 9.1 7.8 6.6 7.4 6.9 7.5 7.5 5.0 6.1 6.1 4.3 5.3 5.7 6.8 4.1 5.8 5.2 5.1 6.4 6.2 8.9 10.8 8.3 9.0 9.3 12.7 6.4 6.6 6.6 7.5 10.4
15.5 12.9 11.3 9.8 7.8 6.2 7.0 4.5 4.4 5.0 3.6 7.3 7.7 6.0 6.1 6.5 7.8 6.2 5.7 5.9 5.2 5.1 4.7 4.7 9.0 10.8 11.6 10.9 8.1 9.6 11.7 16.0 15.9 8.6 4.0 5.8 7.6 9.6
21.5 15.9 15.1 12.0 11.6 10.5 10.3 7.6 8.3 7.0 7.9 10.1 9.7 10.4 10.6 10.0 11.8 8.5 7.4 5.7 4.8 5.9 6.0 5.8 7.6 8.9 11.5 10.7 11.3 9.7 12.5 13.8 13.4 16.8 15.2 8.3 9.2 11.0
19.3 18.8 19.2 19.0 18.5 18.0 15.5 15.2 14.5 12.5 12.6 12.3 11.8 11.8 12.4 13.0 12.8 11.3 12.2 9.6 8.4 10.2 6.9 9.0 6.5 9.2 10.7 9.1 11.9 11.1 11.1 11.3 13.5 15.4 18.7 14.1 13.8 17.3
15.2 14.2 14.7 14.9 15.5 15.1 16.0 16.6 17.3 18.3 17.2 17.1 17.4 18.3 18.4 17.3 16.4 15.3 14.3 12.9 10.5 10.1 10.2 10.5 11.6 10.9 11.1 12.2 16.2 17.0 22.8 23.0 13.2 12.3 17.0 16.0 15.0 17.6
10.1 10.8 10.7 10.5 10.9 12.1 13.2 13.7 13.7 14.6 14.6 15.6 16.3 16.1 18.1 18.3 17.5 16.7 15.6 14.9 12.0 10.9 11.1 11.7 11.9 12.2 13.2 12.5 13.7 13.2 16.1 23.3 26.2 25.2 11.3 9.7 13.9 16.3
7.9 8.2 8.7 8.8 8.8 9.3 9.3 10.1 10.3 10.5 10.2 11.7 13.3 14.3 15.2 16.6 15.1 16.3 15.4 13.7 11.2 10.7 10.6 11.7 11.8 12.4 12.5 11.0 11.3 14.7 13.7 16.0 23.0 26.8 27.5 17.0 12.0 10.5

GFSNE_prec_snow_279.txt.gz
Snowfall_Accumulation
0.0 0.0 0.0 0.0 0.0 0.0 0.3 0.8 5.0 5.2 3.1 0.0 0.3 0.0 0.0 0.0 0.0 0.0 0.0 0.0 0.0 0.0 0.0 0.0 0.0 0.0 0.0 0.0 0.0 0.0 0.0 0.0 0.0 0.0 0.0 0.0 0.0 0.0
0.0 0.0 0.0 0.0 0.0 0.1 0.2 0.4 0.8 2.6 2.4 0.0 0.0 0.0 0.0 0.0 0.0 0.0 0.0 0.0 0.0 0.2 0.0 0.0 0.0 0.0 0.0 0.0 0.0 0.0 0.0 0.0 0.0 0.0 0.0 0.0 0.0 0.0
0.0 0.0 0.0 0.0 0.0 0.1 0.2 0.3 0.4 0.8 2.6 1.2 0.0 0.0 0.0 0.0 0.0 0.0 0.0 0.1 0.1 0.7 0.4 0.2 0.0 0.0 0.0 0.0 0.0 0.0 0.0 0.0 0.0 0.0 0.0 0.0 0.0 0.0
0.0 0.1 0.1 0.0 0.0 0.0 0.2 0.2 0.2 0.3 1.3 3.1 3.6 3.9 2.8 0.2 0.0 0.0 0.1 0.3 0.6 0.6 0.4 0.3 0.5 0.0 0.0 0.0 0.0 0.0 0.0 0.0 0.0 0.0 0.0 0.0 0.0 0.0
0.2 0.3 0.2 0.0 0.1 0.0 0.1 0.3 0.3 0.3 0.8 1.0 3.7 3.2 2.4 1.0 0.3 0.0 0.2 0.4 0.6 0.6 0.4 0.7 0.3 0.6 0.3 0.2 0.0 0.3 0.0 0.0 0.0 0.0 0.1 0.0 0.0 0.0
0.2 0.3 0.4 0.5 0.8 0.5 0.2 0.3 0.3 0.2 2.7 3.2 6.5 6.4 4.2 2.6 0.9 0.8 0.3 0.6 2.3 1.5 1.8 0.9 0.9 0.5 0.5 0.1 0.3 0.0 0.0 0.2 0.0 0.0 0.3 0.2 0.0 0.0
0.7 0.5 0.8 0.9 0.7 0.7 0.6 0.5 0.3 0.2 4.9 6.7 7.1 7.0 7.7 4.7 3.7 0.7 1.7 1.1 0.2 0.4 1.0 1.5 1.4 1.1 1.1 0.7 0.3 0.4 0.3 0.0 0.2 0.4 0.0 0.0 0.4 0.0
2.0 1.6 1.3 0.6 0.7 0.3 0.5 0.5 0.5 1.2 6.5 5.1 5.0 4.5 3.2 1.9 1.4 2.9 3.3 4.8 5.8 0.1 1.5 1.9 0.6 1.0 0.7 0.6 0.3 0.3 0.5 0.4 0.7 0.0 0.0 0.0 0.0 0.3
2.8 2.3 2.1 2.9 1.9 0.9 0.9 0.8 0.6 0.5 1.0 2.2 4.9 3.6 3.3 3.6 3.2 5.3 3.1 2.7 4.9 0.3 0.5 2.6 0.3 1.6 1.3 0.7 1.1 0.4 0.5 0.6 0.0 0.6 0.7 0.0 0.7 0.0
3.1 3.0 3.1 3.3 2.5 2.6 3.3 3.3 1.9 1.4 2.1 2.9 2.0 2.3 3.2 2.3 1.4 1.3 1.9 5.7 5.3 0.5 0.8 11.4 8.9 8.8 2.9 1.7 1.2 2.2 0.7 0.1 0.1 0.3 0.2 0.3 1.1 1.3
3.9 3.6 3.1 3.4 3.4 4.6 3.9 4.6 4.5 4.8 3.3 2.7 2.7 2.1 2.8 0.9 0.3 4.5 8.4 7.0 9.1 8.3 7.6 8.9 10.1 9.4 6.9 4.9 2.0 1.9 1.0 0.4 0.4 0.2 0.2 0.1 0.2 0.2
1.5 1.7 3.2 4.0 3.5 2.3 5.4 5.7 7.0 4.5 5.9 6.8 6.0 2.1 1.2 3.0 1.7 3.9 7.1 11.8 11.2 8.5 7.4 11.5 10.2 11.5 13.8 13.9 5.0 2.5 1.4 1.3 0.6 0.4 0.2 0.0 0.3 0.2
0.8 0.8 1.0 2.7 2.0 1.7 2.0 3.2 4.4 4.6 6.2 8.2 8.7 7.8 11.2 5.3 4.9 6.4 7.1 10.7 11.3 15.6 10.9 14.6 10.0 8.8 12.5 10.1 9.6 2.0 1.1 1.1 0.4 0.5 0.2 1.3 0.5 1.2
1.8 2.0 2.5 0.9 1.3 0.6 1.0 3.5 4.6 5.5 7.3 11.3 12.0 12.1 14.0 12.6 12.0 11.2 10.2 9.9 10.4 9.9 9.9 12.7 15.4 9.0 9.7 10.3 9.5 14.2 9.2 1.7 1.1 4.3 1.4 1.1 2.6 3.2
3.1 3.6 2.4 4.6 3.5 5.9 6.7 12.0 10.8 15.3 19.8 20.0 17.3 14.7 11.0 8.0 5.3 5.3 5.0 3.7 5.4 4.4 5.4 8.4 6.7 6.5 8.9 9.6 9.6 11.2 18.4 16.9 7.1 6.3 5.0 7.9 1.1 2.0
10.0 16.8 16.9 22.7 21.0 22.1 21.9 20.3 18.8 17.9 17.4 15.2 12.6 8.6 6.8 5.7 5.9 4.9 8.9 7.3 7.4 6.3 4.8 3.2 4.6 6.3 8.3 5.9 7.3 8.0 7.1 16.0 15.0 9.8 8.6 8.5 9.0 7.9
15.2 22.5 21.3 18.1 15.4 13.2 10.9 9.1 7.8 6.6 7.4 7.0 7.6 7.5 5.1 6.2 6.1 4.4 5.6 6.0 7.1 4.1 5.8 5.2 5.1 6.4 6.2 9.4 11.2 8.4 9.0 9.3 12.7 6.4 6.6 6.6 7.5 10.4
15.5 12.9 11.3 9.9 7.8 6.2 7.0 4.5 4.4 5.0 3.7 7.4 7.8 6.0 6.2 6.6 7.8 6.3 5.8 6.2 5.6 5.4 4.9 4.9 9.0 11.3 12.3 11.3 8.4 9.7 11.8 16.0 15.9 8.6 4.0 5.8 7.6 9.6
21.5 15.9 15.2 12.1 11.6 10.6 10.4 7.7 8.3 7.1 8.0 10.1 9.8 10.5 10.7 10.1 11.9 8.6 7.5 6.0 5.1 6.2 6.0 6.2 8.0 9.3 12.0 10.9 11.3 9.7 12.5 13.8 13.4 16.8 15.2 8.3 9.2 11.0
19.3 18.8 19.3 19.0 18.6 18.1 15.6 15.3 14.6 12.5 12.6 12.3 11.9 11.9 12.5 13.2 12.9 11.5 12.4 9.8 8.6 10.4 6.9 9.0 6.9 9.4 10.9 9.3 12.6 11.3 11.1 11.3 13.6 15.4 18.7 14.1 13.8 17.3
15.2 14.2 14.7 14.9 15.5 15.2 16.1 16.7 17.4 18.4 17.3 17.2 17.5 18.4 18.5 17.4 16.5 15.3 14.4 13.1 10.8 10.4 10.6 10.5 11.9 10.9 11.1 12.8 16.7 17.2 22.9 23.0 13.2 12.3 17.0 16.1 15.0 17.6
10.1 10.9 10.8 10.5 10.9 12.2 13.3 13.8 13.8 14.6 14.7 15.7 16.4 16.3 18.3 18.5 17.8 16.9 15.8 15.2 12.3 11.2 11.6 12.0 12.3 12.7 13.7 12.9 14.0 13.6 16.3 23.4 26.2 25.2 11.3 9.7 14.0 16.4
8.0 8.3 8.8 8.9 8.9 9.4 9.4 10.2 10.4 10.6 10.4 12.0 13.6 14.5 15.5 16.9 15.4 16.7 15.8 14.1 11.8 11.3 11.2 12.3 12.2 12.8 13.0 11.4 11.8 15.2 13.9 16.1 23.1 26.9 27.6 17.0 12.0 10.5

GFSNE_prec_snow_285.txt.gz
Snowfall_Accumulation
0.0 0.0 0.0 0.0 0.0 0.0 0.3 0.8 5.0 5.2 3.1 0.0 0.3 0.0 0.0 0.0 0.0 0.0 0.0 0.0 0.0 0.0 0.0 0.0 0.0 0.0 0.0 0.0 0.0 0.0 0.0 0.0 0.0 0.0 0.0 0.0 0.0 0.0
0.0 0.0 0.0 0.0 0.0 0.1 0.2 0.4 0.8 2.6 2.4 0.0 0.0 0.0 0.0 0.0 0.0 0.0 0.0 0.0 0.0 0.2 0.0 0.0 0.0 0.0 0.0 0.0 0.0 0.0 0.0 0.0 0.0 0.0 0.0 0.0 0.0 0.0
0.0 0.0 0.0 0.0 0.0 0.1 0.2 0.3 0.4 0.8 2.6 1.2 0.0 0.0 0.0 0.0 0.0 0.0 0.0 0.1 0.1 0.7 0.4 0.2 0.0 0.0 0.0 0.0 0.0 0.0 0.0 0.0 0.0 0.0 0.0 0.0 0.0 0.0
0.0 0.1 0.1 0.0 0.0 0.0 0.2 0.2 0.2 0.3 1.3 3.1 3.6 3.9 2.8 0.2 0.0 0.0 0.1 0.3 0.6 0.6 0.4 0.3 0.5 0.0 0.0 0.0 0.0 0.0 0.0 0.0 0.0 0.0 0.0 0.0 0.0 0.0
0.2 0.3 0.2 0.0 0.1 0.0 0.1 0.3 0.3 0.3 0.8 1.0 3.7 3.2 2.4 1.0 0.3 0.0 0.2 0.4 0.6 0.6 0.4 0.7 0.3 0.6 0.3 0.2 0.0 0.3 0.0 0.0 0.0 0.0 0.1 0.0 0.0 0.0
1.4 1.3 1.0 0.8 0.9 0.5 0.2 0.3 0.3 0.2 2.7 3.2 6.5 6.4 4.2 2.6 0.9 0.8 0.3 0.6 2.3 1.5 1.8 0.9 0.9 0.5 0.5 0.1 0.3 0.0 0.0 0.2 0.0 0.0 0.3 0.2 0.0 0.0
1.1 0.5 1.4 0.9 0.7 0.7 0.6 0.5 0.3 0.2 4.9 6.7 7.1 7.0 7.7 4.7 3.7 0.7 1.7 1.1 0.2 0.4 1.0 1.5 1.4 1.1 1.1 0.7 0.3 0.4 0.3 0.0 0.2 0.4 0.0 0.0 0.4 0.0
2.6 2.1 1.6 0.9 1.0 0.6 0.6 0.6 0.5 1.2 6.5 5.1 5.0 4.5 3.2 1.9 1.4 2.9 3.3 4.8 5.8 0.1 1.5 1.9 0.6 1.0 0.7 0.6 0.3 0.3 0.5 0.4 0.7 0.0 0.0 0.0 0.0 0.3
2.9 2.3 2.1 2.9 2.0 0.9 0.9 0.8 0.6 0.5 1.0 2.2 4.9 3.6 3.3 3.6 3.2 5.3 3.1 2.7 4.9 0.3 0.5 2.6 0.3 1.6 1.3 0.7 1.1 0.4 0.5 0.6 0.0 0.6 0.7 0.0 0.7 0.0
3.1 3.0 3.1 3.3 2.5 2.6 3.3 3.3 1.9 1.4 2.1 2.9 2.0 2.3 3.2 2.3 1.4 1.3 1.9 5.7 5.3 0.5 0.8 11.4 8.9 8.8 2.9 1.7 1.2 2.2 0.7 0.1 0.1 0.3 0.2 0.3 1.1 1.3
3.9 3.6 3.1 3.4 3.4 4.6 3.9 4.6 4.5 4.8 3.3 2.7 2.7 2.1 2.8 0.9 0.3 4.5 8.4 7.0 9.1 8.3 7.6 9.0 10.1 9.4 6.9 4.9 2.0 1.9 1.0 0.4 0.4 0.2 0.2 0.1 0.2 0.2
1.5 1.7 3.2 4.0 3.5 2.3 5.4 5.7 7.0 4.5 5.9 6.8 6.0 2.1 1.2 3.0 1.7 3.9 7.1 12.0 11.4 8.6 7.4 11.5 10.2 11.6 13.9 13.9 5.0 2.5 1.4 1.3 0.6 0.4 0.2 0.0 0.3 0.2
0.8 0.8 1.0 2.7 2.0 1.7 2.0 3.2 4.4 4.6 6.2 8.2 8.7 7.8 11.2 5.3 4.9 6.4 7.1 10.7 11.3 15.7 10.9 14.6 10.4 8.8 12.5 10.1 9.6 2.0 1.1 1.1 0.4 0.5 0.2 1.3 0.5 1.2
1.8 2.0 2.5 0.9 1.3 0.6 1.0 3.5 4.6 5.6 7.3 11.3 12.0 12.1 14.0 12.6 12.0 11.2 10.2 9.9 10.4 9.9 9.9 12.7 15.7 9.3 10.0 10.6 9.5 14.2 9.2 1.7 1.1 4.3 1.4 1.1 2.6 3.2
3.1 3.6 2.4 4.6 3.5 5.9 6.7 12.0 10.8 15.3 19.8 20.0 17.3 14.7 11.0 8.0 5.3 5.3 5.0 3.7 5.4 4.4 5.4 8.4 6.7 6.5 9.2 10.0 9.7 11.2 18.5 16.9 7.1 6.3 5.0 7.9 1.1 2.0
10.0 16.8 16.9 22.7 21.0 22.1 21.9 20.3 18.8 17.9 17.4 15.3 12.6 8.6 6.8 5.7 5.9 4.9 8.9 7.3 7.4 6.3 4.8 3.2 4.6 6.3 8.4 6.0 7.4 8.2 7.1 16.2 15.0 9.8 8.6 8.5 9.0 7.9
15.2 22.5 21.3 18.1 15.4 13.2 10.9 9.1 7.8 6.6 7.4 7.0 7.6 7.6 5.1 6.2 6.1 4.4 5.6 6.0 7.2 4.1 5.8 5.2 5.1 6.4 6.4 9.4 11.9 8.8 9.1 9.4 12.7 6.4 6.6 7.0 7.5 10.4
15.5 12.9 11.3 9.9 7.9 6.2 7.0 4.5 4.4 5.1 3.7 7.4 7.8 6.1 6.2 6.6 7.8 6.3 5.8 6.3 5.7 5.4 4.9 4.9 9.0 11.3 12.6 11.6 8.4 9.9 11.9 16.2 15.9 8.6 4.3 6.6 7.6 9.6
21.5 15.9 15.2 12.1 11.7 10.6 10.4 7.7 8.4 7.1 8.0 10.1 9.8 10.6 10.8 10.1 11.9 8.7 7.6 6.0 5.2 6.2 6.0 6.2 8.0 10.0 13.1 11.4 11.3 9.7 12.7 13.9 13.6 17.5 15.6 9.0 9.6 11.0
19.3 18.8 19.3 19.1 18.6 18.2 15.6 15.3 14.6 12.6 12.6 12.3 11.9 11.9 12.6 13.3 13.0 11.5 12.4 9.8 8.7 10.4 6.9 9.0 6.9 10.0 12.1 10.0 13.4 11.3 11.1 12.6 14.8 16.3 19.5 14.8 14.2 17.3
15.2 14.2 14.8 15.0 15.6 15.2 16.2 16.7 17.5 18.5 17.3 17.3 17.6 18.5 18.7 17.7 16.6 15.3 14.5 13.1 10.9 10.5 10.8 10.5 11.9 10.9 12.0 14.0 17.9 17.3 22.9 23.0 13.9 13.0 17.7 16.8 15.3 17.6
10.2 10.9 10.8 10.6 11.0 12.4 13.4 13.9 13.9 14.6 14.7 15.9 16.6 16.5 18.4 18.6 18.1 17.1 15.9 15.6 12.4 11.4 12.1 12.0 12.3 13.2 14.6 14.0 14.7 14.5 17.0 23.9 26.5 25.7 11.6 9.8 14.1 16.6
8.1 8.4 9.0 9.0 9.0 9.5 9.4 10.2 10.5 10.6 10.6 12.3 13.8 14.7 15.7 17.1 15.5 17.0 16.2 14.6 12.4 11.8 11.7 13.0 12.7 13.3 13.7 12.3 12.7 16.1 14.7 16.8 23.6 27.4 27.8 17.1 12.0 10.5

GFSNE_prec_snow_291.txt.gz
Snowfall_Accumulation
0.0 0.0 0.0 0.0 0.0 0.0 0.3 0.8 5.0 5.2 3.1 0.0 0.3 0.0 0.0 0.0 0.0 0.0 0.0 0.0 0.0 0.0 0.0 0.0 0.0 0.0 0.0 0.0 0.0 0.0 0.0 0.0 0.0 0.0 0.0 0.0 0.0 0.0
0.0 0.0 0.0 0.0 0.0 0.1 0.2 0.4 0.8 2.6 2.4 0.0 0.0 0.0 0.0 0.0 0.0 0.0 0.0 0.0 0.0 0.2 0.0 0.0 0.0 0.0 0.0 0.0 0.0 0.0 0.0 0.0 0.0 0.0 0.0 0.0 0.0 0.0
0.0 0.0 0.0 0.0 0.0 0.1 0.2 0.3 0.4 0.8 2.6 1.2 0.0 0.0 0.0 0.0 0.0 0.0 0.0 0.1 0.1 0.7 0.4 0.2 0.0 0.0 0.0 0.0 0.0 0.0 0.0 0.0 0.0 0.0 0.0 0.0 0.0 0.0
0.0 0.1 0.1 0.0 0.7 0.0 0.2 0.2 0.2 0.3 1.3 3.1 3.6 3.9 2.8 0.2 0.0 0.0 0.1 0.3 0.6 0.6 0.4 0.3 0.5 0.0 0.0 0.0 0.0 0.0 0.0 0.0 0.0 0.0 0.0 0.0 0.0 0.0
2.8 2.7 2.5 0.7 1.0 1.4 2.3 0.3 0.3 0.3 0.8 1.0 3.7 3.2 2.4 1.0 0.3 0.0 0.2 0.4 0.6 0.6 0.4 0.7 0.3 0.6 0.3 0.2 0.0 0.3 0.0 0.0 0.0 0.0 0.1 0.0 0.0 0.0
2.6 2.8 2.6 2.1 2.2 0.5 2.3 2.9 3.5 3.3 5.7 6.2 9.9 9.3 4.2 4.0 1.8 0.8 0.3 0.6 2.3 1.5 1.8 0.9 0.9 0.5 0.5 0.1 0.3 0.0 0.0 0.2 0.0 0.0 0.3 0.2 0.0 0.0
1.8 0.5 1.8 1.4 1.2 1.1 1.2 1.2 1.3 1.6 6.3 8.5 8.9 8.4 8.7 5.3 4.1 0.9 1.8 1.1 0.2 0.4 1.0 1.5 1.4 1.1 1.1 0.7 0.3 0.4 0.3 0.0 0.2 0.4 0.0 0.0 0.4 0.0
2.6 2.1 1.6 0.9 1.0 0.6 0.6 0.6 0.6 1.5 6.9 5.7 5.9 5.3 4.1 2.7 2.1 3.2 3.5 4.8 5.8 0.1 1.5 1.9 0.6 1.0 0.7 0.6 0.3 0.3 0.5 0.4 0.7 0.0 0.0 0.0 0.0 0.3
2.9 2.3 2.1 2.9 2.0 0.9 0.9 0.8 0.6 0.5 1.0 2.2 4.9 3.7 3.5 3.8 3.4 5.4 3.2 2.8 4.9 0.3 0.5 2.6 0.3 1.6 1.3 0.7 1.1 0.4 0.5 0.6 0.0 0.6 0.7 0.0 0.7 0.0
3.1 3.0 3.1 3.3 2.5 2.6 3.3 3.3 1.9 1.4 2.1 2.9 2.0 2.3 3.2 2.3 1.4 1.3 1.9 5.7 5.3 0.5 0.8 11.4 8.9 8.8 2.9 1.7 1.2 2.2 0.7 0.1 0.1 0.3 0.2 0.3 1.1 1.3
3.9 3.6 3.1 3.4 3.5 4.6 3.9 4.6 4.5 4.8 3.3 2.7 2.7 2.1 2.8 0.9 0.3 4.5 8.4 7.0 9.1 8.3 7.6 9.0 10.1 9.4 6.9 4.9 2.0 1.9 1.0 0.4 0.4 0.2 0.2 0.1 0.2 0.2
1.5 1.7 3.2 4.0 3.5 2.3 5.4 5.7 7.0 4.5 5.9 6.8 6.0 2.1 1.2 3.0 1.7 3.9 7.1 12.0 11.5 8.6 7.4 11.5 10.2 11.6 13.9 13.9 5.0 2.5 1.4 1.3 0.6 0.4 0.2 0.0 0.3 0.2
0.8 0.8 1.0 2.7 2.0 1.7 2.0 3.2 4.4 4.6 6.2 8.2 8.7 7.8 11.2 5.3 4.9 6.4 7.1 10.7 11.4 15.7 10.9 14.7 10.4 8.8 12.5 10.1 9.6 2.0 1.1 1.1 0.4 0.5 0.2 1.3 0.5 1.2
1.8 2.0 2.5 0.9 1.3 0.6 1.0 3.5 4.6 5.6 7.3 11.3 12.0 12.1 14.0 12.6 12.0 11.2 10.2 9.9 10.4 9.9 9.9 12.7 15.8 9.3 10.3 10.7 9.5 14.2 9.2 1.7 1.1 4.3 1.4 1.1 2.6 3.2
3.1 3.6 2.4 4.6 3.5 5.9 6.7 12.0 10.8 15.3 19.8 20.0 17.3 14.7 11.0 8.0 5.3 5.3 5.0 3.7 5.4 4.4 5.4 8.4 6.7 6.5 9.3 10.2 9.8 11.2 18.5 16.9 7.1 6.3 5.0 7.9 1.1 2.0
10.0 16.8 16.9 22.7 21.0 22.1 21.9 20.3 18.8 17.9 17.4 15.4 12.7 8.6 6.8 5.7 5.9 4.9 8.9 7.3 7.4 6.3 4.8 3.2 4.6 6.3 8.4 6.0 7.4 8.2 7.1 16.3 15.0 9.8 8.6 8.5 9.0 7.9
15.2 22.5 21.3 18.1 15.4 13.2 10.9 9.1 7.8 6.6 7.4 7.0 7.6 7.6 5.1 6.2 6.1 4.4 5.6 6.0 7.2 4.1 5.8 5.2 5.1 6.4 6.4 9.4 11.9 8.8 9.1 9.4 12.7 6.4 6.6 7.0 7.5 10.4
15.5 12.9 11.3 9.9 7.9 6.2 7.0 4.5 4.4 5.1 3.7 7.4 7.8 6.1 6.2 6.6 7.8 6.3 5.8 6.3 5.7 5.4 4.9 4.9 9.0 11.3 12.6 11.6 8.4 9.9 11.9 16.2 15.9 8.6 4.3 6.9 7.7 9.6
21.5 15.9 15.2 12.2 11.7 10.6 10.5 7.7 8.4 7.1 8.0 10.1 9.8 10.6 10.8 10.1 11.9 8.7 7.6 6.0 5.2 6.2 6.0 6.2 8.0 10.1 13.3 11.4 11.3 9.7 12.7 13.9 13.6 17.6 15.6 9.3 9.9 11.0
19.3 18.9 19.4 19.2 18.7 18.3 15.7 15.4 14.6 12.6 12.7 12.4 12.0 12.0 12.7 13.4 13.1 11.5 12.4 9.9 8.8 10.4 6.9 9.0 6.9 10.2 12.5 10.3 13.8 11.3 11.1 12.6 14.8 16.3 19.5 15.0 14.6 17.3
15.3 14.3 14.9 15.1 15.6 15.4 16.3 16.8 17.6 18.5 17.4 17.3 17.7 18.6 18.8 17.9 16.6 15.4 14.6 13.1 10.9 10.6 10.9 10.5 11.9 10.9 12.4 14.7 18.3 17.3 22.9 23.0 13.9 13.2 17.9 17.3 15.7 18.0
10.2 11.0 10.9 10.6 11.1 12.5 13.5 13.9 14.0 14.7 14.8 15.9 16.6 16.6 18.5 18.7 18.3 17.1 16.0 15.7 12.4 11.5 12.2 12.0 12.3 13.2 14.7 14.8 15.0 14.5 17.0 23.9 26.5 25.7 11.8 10.1 14.7 16.9
8.1 8.5 9.0 9.0 9.1 9.5 9.4 10.3 10.6 10.7 10.6 12.4 13.8 14.8 15.8 17.3 15.6 17.2 16.4 14.7 12.5 11.9 11.7 13.1 12.7 13.3 13.7 12.6 13.2 16.4 14.9 16.8 23.7 27.4 27.8 17.1 12.1 10.5